timestamp,wind_dir_avg,wind_spd_max_dir,wind_spd_avg,wind_spd_gust,battery_voltage,lat,long
2022-11-27 00:04:00+00:00,77.0,66.0,7.74,9.45,12.17,47.59359,-54.27349
2022-11-27 00:14:00+00:00,76.0,57.0,7.65,9.72,12.17,47.59359,-54.27349
2022-11-27 00:24:00+00:00,74.0,75.0,8.43,11.15,12.17,47.59359,-54.27349
2022-11-27 00:34:00+00:00,77.0,70.0,7.89,10.49,12.17,47.59359,-54.27349
2022-11-27 00:44:00+00:00,74.0,67.0,9.33,12.3,12.17,47.59359,-54.27349
2022-11-27 00:54:00+00:00,72.0,73.0,9.65,12.5,12.17,47.59359,-54.27349
2022-11-27 01:04:00+00:00,72.0,67.0,9.05,11.37,12.17,47.59359,-54.27349
2022-11-27 01:14:01+00:00,64.0,70.0,10.71,12.68,12.17,47.59359,-54.27349
2022-11-27 01:24:01+00:00,65.0,71.0,11.68,13.82,12.17,47.59359,-54.27349
2022-11-27 01:34:01+00:00,69.0,70.0,10.31,11.99,12.17,47.59359,-54.27349
2022-11-27 01:44:01+00:00,68.0,69.0,9.56,11.95,12.17,47.59359,-54.27349
2022-11-27 01:54:01+00:00,59.0,65.0,11.9,14.1,12.17,47.59359,-54.27349
2022-11-27 02:04:01+00:00,64.0,70.0,11.42,13.51,12.17,47.59359,-54.27349
2022-11-27 02:14:01+00:00,64.0,67.0,11.59,14.55,12.09,47.59359,-54.27349
2022-11-27 02:24:01+00:00,64.0,64.0,12.04,14.17,12.09,47.59359,-54.27349
2022-11-27 02:34:01+00:00,66.0,69.0,11.77,14.24,12.09,47.59359,-54.27349
2022-11-27 02:44:01+00:00,68.0,64.0,11.83,14.49,12.09,47.59359,-54.27349
2022-11-27 02:54:01+00:00,66.0,62.0,11.78,15.25,12.09,47.59359,-54.27349
2022-11-27 03:04:01+00:00,62.0,62.0,11.25,15.34,12.09,47.59359,-54.27349
2022-11-27 03:14:00+00:00,61.0,60.0,11.19,13.63,12.09,47.59359,-54.27349
2022-11-27 03:24:00+00:00,59.0,60.0,12.98,15.69,12.09,47.59359,-54.27349
2022-11-27 03:34:00+00:00,60.0,60.0,11.25,13.23,12.09,47.59359,-54.27349
2022-11-27 03:44:00+00:00,62.0,67.0,11.38,14.3,12.09,47.59359,-54.27349
2022-11-27 03:54:00+00:00,55.0,54.0,12.79,15.08,12.09,47.59359,-54.27349
2022-11-27 04:04:00+00:00,56.0,58.0,13.03,15.64,12.09,47.59359,-54.27349
2022-11-27 04:14:00+00:00,54.0,56.0,13.99,15.59,12.09,47.59359,-54.27349
2022-11-27 04:24:00+00:00,56.0,58.0,13.73,16.55,12.09,47.59359,-54.27349
2022-11-27 04:34:00+00:00,54.0,55.0,13.86,16.01,12.09,47.59359,-54.27349
2022-11-27 04:44:00+00:00,51.0,47.0,14.38,17.65,12.09,47.59359,-54.27349
2022-11-27 04:54:00+00:00,50.0,53.0,14.51,17.1,12.09,47.59359,-54.27349
2022-11-27 05:04:00+00:00,50.0,50.0,14.51,17.39,12.09,47.59359,-54.27349
2022-11-27 05:14:01+00:00,49.0,48.0,14.26,18.52,12.17,47.59359,-54.27349
2022-11-27 05:24:01+00:00,49.0,48.0,14.94,18.52,12.17,47.59359,-54.27349
2022-11-27 05:34:01+00:00,49.0,49.0,14.94,17.45,12.17,47.59359,-54.27349
2022-11-27 05:44:01+00:00,47.0,45.0,15.55,17.87,12.17,47.59359,-54.27349
2022-11-27 05:54:01+00:00,46.0,50.0,15.49,17.97,12.17,47.59359,-54.27349
2022-11-27 06:04:01+00:00,48.0,53.0,14.61,16.85,12.17,47.59359,-54.27349
2022-11-27 06:14:01+00:00,49.0,49.0,15.92,17.7,12.09,47.59359,-54.27349
2022-11-27 06:24:01+00:00,44.0,46.0,15.1,18.12,12.09,47.59359,-54.27349
2022-11-27 06:34:01+00:00,48.0,51.0,12.68,15.18,12.09,47.59359,-54.27349
2022-11-27 06:44:01+00:00,44.0,45.0,15.33,17.8,12.09,47.59359,-54.27349
2022-11-27 06:54:01+00:00,46.0,47.0,14.48,17.32,12.09,47.59359,-54.27349
2022-11-27 07:04:01+00:00,47.0,54.0,12.87,16.49,12.09,47.59359,-54.27349
2022-11-27 07:14:00+00:00,50.0,55.0,13.8,16.17,12.09,47.59359,-54.27349
2022-11-27 07:24:00+00:00,49.0,49.0,14.0,16.59,12.09,47.59359,-54.27349
2022-11-27 07:34:00+00:00,51.0,50.0,15.03,17.85,12.09,47.59359,-54.27349
2022-11-27 07:44:00+00:00,51.0,50.0,13.79,16.42,12.09,47.59359,-54.27349
2022-11-27 07:54:00+00:00,51.0,50.0,14.98,17.27,12.09,47.59359,-54.27349
2022-11-27 08:04:00+00:00,53.0,48.0,15.22,17.94,12.09,47.59359,-54.27349
2022-11-27 08:14:01+00:00,54.0,56.0,15.53,17.67,12.09,47.59359,-54.27349
2022-11-27 08:24:01+00:00,55.0,54.0,15.96,18.52,12.09,47.59359,-54.27349
2022-11-27 08:34:01+00:00,57.0,58.0,14.62,17.27,12.09,47.59359,-54.27349
2022-11-27 08:44:01+00:00,58.0,57.0,15.05,17.35,12.09,47.59359,-54.27349
2022-11-27 08:54:01+00:00,58.0,58.0,15.69,17.47,12.09,47.59359,-54.27349
2022-11-27 09:04:01+00:00,58.0,57.0,13.26,16.75,12.09,47.59359,-54.27349
2022-11-27 09:14:00+00:00,60.0,58.0,15.88,18.48,12.09,47.59359,-54.27349
2022-11-27 09:24:00+00:00,60.0,54.0,13.88,16.94,12.09,47.59359,-54.27349
2022-11-27 09:34:00+00:00,59.0,58.0,14.24,16.65,12.09,47.59359,-54.27349
2022-11-27 09:44:00+00:00,53.0,56.0,15.31,17.66,12.09,47.59359,-54.27349
2022-11-27 09:54:00+00:00,47.0,44.0,16.62,18.78,12.09,47.59359,-54.27349
2022-11-27 10:04:00+00:00,49.0,49.0,17.27,19.19,12.09,47.59359,-54.27349
2022-11-27 10:14:00+00:00,43.0,44.0,16.38,19.26,12.09,47.59359,-54.27349
2022-11-27 10:24:00+00:00,35.0,32.0,17.98,20.22,12.09,47.59359,-54.27349
2022-11-27 10:34:00+00:00,39.0,40.0,16.13,20.16,12.09,47.59359,-54.27349
2022-11-27 10:44:00+00:00,38.0,37.0,17.25,21.21,12.09,47.59359,-54.27349
2022-11-27 10:54:00+00:00,36.0,39.0,17.77,20.2,12.09,47.59359,-54.27349
2022-11-27 11:04:00+00:00,40.0,34.0,15.65,18.47,12.09,47.59359,-54.27349
2022-11-27 11:14:00+00:00,40.0,47.0,16.45,19.53,12.09,47.59359,-54.27349
2022-11-27 11:24:00+00:00,42.0,48.0,16.93,20.35,12.09,47.59359,-54.27349
2022-11-27 11:34:00+00:00,40.0,42.0,18.74,21.35,12.09,47.59359,-54.27349
2022-11-27 11:44:00+00:00,38.0,36.0,17.35,20.7,12.09,47.59359,-54.27349
2022-11-27 11:54:00+00:00,38.0,38.0,17.8,20.9,12.09,47.59359,-54.27349
2022-11-27 12:04:00+00:00,42.0,43.0,18.92,21.62,12.09,47.59359,-54.27349
2022-11-27 12:14:00+00:00,42.0,44.0,16.96,19.84,12.33,47.59359,-54.27349
2022-11-27 12:24:00+00:00,44.0,43.0,18.67,20.76,12.33,47.59359,-54.27349
2022-11-27 12:34:00+00:00,39.0,34.0,16.47,19.83,12.33,47.59359,-54.27349
2022-11-27 12:44:00+00:00,42.0,42.0,15.7,18.56,12.33,47.59359,-54.27349
2022-11-27 12:54:00+00:00,43.0,45.0,15.58,19.11,12.33,47.59359,-54.27349
2022-11-27 13:04:00+00:00,32.0,32.0,13.44,15.04,12.33,47.59359,-54.27349
2022-11-27 13:14:00+00:00,33.0,37.0,12.82,16.36,12.41,47.59359,-54.27349
2022-11-27 13:24:00+00:00,34.0,40.0,14.6,18.0,12.41,47.59359,-54.27349
2022-11-27 13:34:00+00:00,34.0,34.0,11.88,13.55,12.41,47.59359,-54.27349
2022-11-27 13:44:00+00:00,35.0,33.0,12.97,14.59,12.41,47.59359,-54.27349
2022-11-27 13:54:00+00:00,40.0,50.0,13.56,16.12,12.41,47.59359,-54.27349
2022-11-27 14:04:00+00:00,36.0,45.0,11.4,13.46,12.41,47.59359,-54.27349
2022-11-27 14:14:00+00:00,36.0,37.0,10.88,12.77,12.65,47.59359,-54.27349
2022-11-27 14:24:00+00:00,32.0,31.0,11.95,13.61,12.65,47.59359,-54.27349
2022-11-27 14:34:00+00:00,30.0,34.0,10.52,11.85,12.65,47.59359,-54.27349
2022-11-27 14:44:00+00:00,22.0,21.0,11.03,12.41,12.65,47.59359,-54.27349
2022-11-27 14:54:00+00:00,27.0,30.0,10.67,12.24,12.65,47.59359,-54.27349
2022-11-27 15:04:00+00:00,22.0,25.0,9.51,11.39,12.65,47.59359,-54.27349
2022-11-27 15:14:00+00:00,29.0,29.0,10.33,11.66,12.73,47.59359,-54.27349
2022-11-27 15:24:00+00:00,24.0,19.0,10.05,11.34,12.73,47.59359,-54.27349
2022-11-27 15:34:00+00:00,22.0,23.0,10.4,12.39,12.73,47.59359,-54.27349
2022-11-27 15:44:00+00:00,24.0,31.0,10.98,12.27,12.73,47.59359,-54.27349
2022-11-27 15:54:00+00:00,28.0,30.0,9.78,10.74,12.73,47.59359,-54.27349
2022-11-27 16:04:00+00:00,31.0,27.0,10.61,12.01,12.73,47.59359,-54.27349
2022-11-27 16:14:01+00:00,32.0,32.0,9.76,11.11,12.97,47.59359,-54.27349
2022-11-27 16:24:01+00:00,29.0,36.0,10.04,11.61,12.97,47.59359,-54.27349
2022-11-27 16:34:01+00:00,25.0,30.0,9.37,10.52,12.97,47.59359,-54.27349
2022-11-27 16:44:01+00:00,25.0,27.0,10.08,11.0,12.97,47.59359,-54.27349
2022-11-27 16:54:01+00:00,22.0,17.0,9.98,11.1,12.97,47.59359,-54.27349
2022-11-27 17:04:01+00:00,26.0,26.0,8.7,10.28,12.97,47.59359,-54.27349
2022-11-27 17:14:00+00:00,27.0,28.0,8.19,9.7,12.81,47.59359,-54.27349
2022-11-27 17:24:00+00:00,29.0,26.0,8.95,10.02,12.81,47.59359,-54.27349
2022-11-27 17:34:00+00:00,28.0,25.0,8.8,9.84,12.81,47.59359,-54.27349
2022-11-27 17:44:00+00:00,27.0,28.0,8.58,10.31,12.81,47.59359,-54.27349
2022-11-27 17:54:00+00:00,22.0,24.0,8.34,10.49,12.81,47.59359,-54.27349
2022-11-27 18:04:00+00:00,19.0,29.0,8.35,10.43,12.81,47.59359,-54.27349
2022-11-27 18:14:00+00:00,357.0,357.0,8.55,9.7,12.65,47.59359,-54.27349
2022-11-27 18:24:00+00:00,353.0,354.0,7.97,8.99,12.65,47.59359,-54.27349
2022-11-27 18:34:00+00:00,354.0,357.0,8.66,9.94,12.65,47.59359,-54.27349
2022-11-27 18:44:00+00:00,352.0,358.0,9.02,10.11,12.65,47.59359,-54.27349
2022-11-27 18:54:00+00:00,352.0,349.0,8.23,9.57,12.65,47.59359,-54.27349
2022-11-27 19:04:00+00:00,359.0,0.0,8.18,9.33,12.65,47.59359,-54.27349
2022-11-27 19:14:00+00:00,358.0,0.0,8.24,9.35,12.49,47.59359,-54.27349
2022-11-27 19:24:00+00:00,358.0,359.0,8.58,9.78,12.49,47.59359,-54.27349
2022-11-27 19:34:00+00:00,0.0,1.0,9.64,10.42,12.49,47.59359,-54.27349
2022-11-27 19:44:00+00:00,4.0,0.0,9.51,10.96,12.49,47.59359,-54.27349
2022-11-27 19:54:00+00:00,7.0,17.0,8.14,10.0,12.49,47.59359,-54.27349
2022-11-27 20:04:00+00:00,359.0,1.0,9.24,9.87,12.49,47.59359,-54.27349
2022-11-27 20:14:00+00:00,354.0,351.0,7.5,8.48,12.33,47.59359,-54.27349
2022-11-27 20:24:00+00:00,346.0,345.0,7.62,8.29,12.33,47.59359,-54.27349
2022-11-27 20:34:00+00:00,349.0,355.0,7.31,8.81,12.33,47.59359,-54.27349
2022-11-27 20:44:00+00:00,353.0,353.0,7.4,8.25,12.33,47.59359,-54.27349
2022-11-27 20:54:00+00:00,348.0,349.0,7.84,8.61,12.33,47.59359,-54.27349
2022-11-27 21:04:00+00:00,351.0,351.0,8.05,8.76,12.33,47.59359,-54.27349
2022-11-27 21:14:00+00:00,352.0,355.0,7.82,8.76,12.25,47.59359,-54.27349
2022-11-27 21:24:00+00:00,350.0,349.0,6.36,7.18,12.25,47.59359,-54.27349
2022-11-27 21:34:00+00:00,349.0,348.0,5.14,5.69,12.25,47.59359,-54.27349
2022-11-27 21:44:00+00:00,347.0,346.0,5.54,5.91,12.25,47.59359,-54.27349
2022-11-27 21:54:00+00:00,346.0,348.0,4.9,5.39,12.25,47.59359,-54.27349
2022-11-27 22:04:00+00:00,349.0,349.0,4.61,5.1,12.25,47.59359,-54.27349
2022-11-27 22:14:00+00:00,343.0,342.0,5.54,6.01,12.17,47.59359,-54.27349
2022-11-27 22:24:00+00:00,335.0,332.0,4.51,5.28,12.17,47.59359,-54.27349
2022-11-27 22:34:00+00:00,326.0,329.0,5.69,6.19,12.17,47.59359,-54.27349
2022-11-27 22:44:00+00:00,333.0,333.0,4.91,5.51,12.17,47.59359,-54.27349
2022-11-27 22:54:00+00:00,317.0,318.0,4.96,5.49,12.17,47.59359,-54.27349
2022-11-27 23:04:00+00:00,326.0,326.0,5.66,6.2,12.17,47.59359,-54.27349
2022-11-27 23:14:00+00:00,339.0,342.0,5.62,6.64,12.17,47.59359,-54.27349
2022-11-27 23:24:00+00:00,341.0,346.0,5.89,6.62,12.17,47.59359,-54.27349
2022-11-27 23:34:00+00:00,327.0,325.0,5.74,6.59,12.17,47.59359,-54.27349
2022-11-27 23:44:00+00:00,334.0,334.0,5.83,6.47,12.17,47.59359,-54.27349
2022-11-27 23:54:00+00:00,323.0,324.0,5.21,5.92,12.17,47.59359,-54.27349
